FW7380 Weather Reports


Display with metric or nautical units.
time (UTC)temp
F
wind
direction
speed
MPH
gust
MPH
rain 1hr
in
rain 24hr
in
rain mn
in
humidity
%
barometer
mb
20260505003037 64 125 1.0 3.0 0.00 0.00 0.00 43 1007.6
20260505001539 65 175 0.0 4.0 0.00 0.00 0.00 43 1007.2
20260504234541 66 153 1.0 6.0 0.00 0.00 0.00 40 1006.8
20260504233039 67 146 1.0 9.0 0.00 0.00 0.00 39 1006.6
20260504231538 69 131 2.0 7.0 0.00 0.00 0.00 37 1006.5
20260504230040 70 0 2.0 9.0 0.00 0.00 0.00 35 1006.2
20260504224538 70 140 4.0 15.0 0.00 0.00 0.00 35 1006.1
20260504223037 70 203 3.0 13.0 0.00 0.00 0.00 34 1006.0
20260504221542 71 132 3.0 10.0 0.00 0.00 0.00 35 1006.0
20260504220048 70 143 2.0 8.0 0.00 0.00 0.00 35 1006.0
20260504214538 70 140 4.0 10.0 0.00 0.00 0.00 35 1006.0
20260504213053 71 163 5.0 11.0 0.00 0.00 0.00 34 1005.8
20260504211541 71 171 4.0 10.0 0.00 0.00 0.00 34 1006.1
20260504210038 71 96 4.0 16.0 0.00 0.00 0.00 35 1006.0
20260504204542 71 141 4.0 19.0 0.00 0.00 0.00 34 1005.9
20260504203040 71 165 5.0 14.0 0.00 0.00 0.00 33 1005.9
20260504201539 72 169 4.0 12.0 0.00 0.00 0.00 33 1005.9
20260504200038 71 172 6.0 13.0 0.00 0.00 0.00 32 1005.8
20260504194538 71 169 3.0 14.0 0.00 0.00 0.00 34 1005.9
20260504193053 71 155 5.0 12.0 0.00 0.00 0.00 33 1005.9
20260504191541 71 146 3.0 11.0 0.00 0.00 0.00 32 1005.9
20260504190042 70 86 4.0 13.0 0.00 0.00 0.00 33 1006.1
20260504184542 70 157 7.0 13.0 0.00 0.00 0.00 32 1006.2
20260504183049 70 346 6.0 17.0 0.00 0.00 0.00 34 1006.1
20260504181539 69 131 7.0 17.0 0.00 0.00 0.00 33 1006.5
20260504180058 69 120 3.0 19.0 0.00 0.00 0.00 34 1006.3
20260504174541 69 113 5.0 15.0 0.00 0.00 0.00 35 1006.6
20260504173039 68 122 5.0 16.0 0.00 0.00 0.00 36 1006.6
20260504171541 68 188 5.0 20.0 0.00 0.00 0.00 35 1006.7
20260504081538 43 138 1.0 4.0 0.00 0.00 0.00 65 1009.5
20260504044538 38 0 0.0 1.0 0.00 0.01 0.00 72 1009.6
20260504043051 37 143 0.0 0.0 0.00 0.01 0.00 72 1009.5
20260504041539 38 0 0.0 0.0 0.00 0.01 0.00 73 1009.4
20260504040039 38 0 0.0 2.0 0.00 0.01 0.00 72 1009.4
20260504034544 38 165 0.0 0.0 0.00 0.01 0.01 71 1009.3
20260504033041 39 0 0.0 0.0 0.00 0.01 0.01 71 1009.2
20260504031538 39 0 0.0 0.0 0.00 0.01 0.01 69 1009.3
20260504030042 40 0 0.0 0.0 0.00 0.01 0.01 67 1009.2
20260504024539 41 0 0.0 0.0 0.00 0.01 0.01 65 1009.2
20260504023040 41 0 0.0 0.0 0.00 0.01 0.01 64 1009.2
20260504021537 41 0 0.0 0.0 0.00 0.01 0.01 64 1009.2
20260504020046 41 0 0.0 0.0 0.00 0.01 0.01 63 1009.2
20260504014549 42 0 0.0 0.0 0.00 0.01 0.01 62 1009.0
20260504013039 43 0 0.0 0.0 0.00 0.01 0.01 61 1009.0
20260504011542 43 0 0.0 1.0 0.00 0.01 0.01 59 1008.9
20260504010038 44 165 0.0 1.0 0.00 0.01 0.01 58 1008.7
20260504004537 45 0 0.0 1.0 0.00 0.01 0.01 57 1008.5